TimeMDT,TemperatureF,Dew PointF,Humidity,Sea Level PressureIn,VisibilityMPH,Wind Direction,Wind SpeedMPH,Gust SpeedMPH,PrecipitationIn,Events,Conditions,WindDirDegrees,DateUTC
12:52 AM,57.0,36.0,45,29.58,10.0,West,3.5,-,N/A,,Clear,280,2013-09-22 06:52:00
1:52 AM,57.0,36.0,45,29.57,10.0,Calm,Calm,-,N/A,,Clear,0,2013-09-22 07:52:00
2:52 AM,55.0,35.1,47,29.55,10.0,Calm,Calm,-,N/A,,Clear,0,2013-09-22 08:52:00
3:52 AM,53.1,35.1,50,29.55,10.0,SE,5.8,-,N/A,,Clear,140,2013-09-22 09:52:00
4:52 AM,54.0,35.1,49,29.55,10.0,ESE,4.6,-,N/A,,Clear,120,2013-09-22 10:52:00
5:52 AM,53.1,37.0,55,29.55,10.0,Calm,Calm,-,N/A,,Clear,0,2013-09-22 11:52:00
6:52 AM,48.0,37.0,66,29.59,10.0,Calm,Calm,-,N/A,,Clear,0,2013-09-22 12:52:00
7:52 AM,61.0,41.0,48,29.56,10.0,ESE,4.6,-,N/A,,Partly Cloudy,120,2013-09-22 13:52:00
8:52 AM,71.1,41.0,34,29.53,10.0,SSE,4.6,-,N/A,,Clear,150,2013-09-22 14:52:00
9:52 AM,80.1,44.1,28,29.52,10.0,SE,6.9,-,N/A,,Clear,130,2013-09-22 15:52:00
10:52 AM,84.0,43.0,24,29.50,10.0,SE,3.5,-,N/A,,Clear,130,2013-09-22 16:52:00
11:52 AM,91.9,42.1,18,29.47,10.0,South,10.4,-,N/A,,Clear,190,2013-09-22 17:52:00
12:52 PM,90.0,42.1,19,29.45,10.0,Variable,6.9,-,N/A,,Partly Cloudy,0,2013-09-22 18:52:00
1:52 PM,91.0,41.0,17,29.43,10.0,WSW,11.5,19.6,N/A,,Clear,240,2013-09-22 19:52:00
2:52 PM,91.0,41.0,17,29.42,10.0,South,12.7,18.4,N/A,,Clear,190,2013-09-22 20:52:00
3:52 PM,91.0,39.9,17,29.41,10.0,SSW,10.4,17.3,N/A,,Clear,210,2013-09-22 21:52:00
4:52 PM,90.0,42.1,19,29.39,10.0,SSW,8.1,-,N/A,,Clear,210,2013-09-22 22:52:00
5:52 PM,82.9,45.0,26,29.41,10.0,SSE,8.1,18.4,N/A,Thunderstorm,Clear,150,2013-09-22 23:52:00
6:11 PM,82.4,44.6,26,29.48,10.0,SE,6.9,-,N/A,,Clear,130,2013-09-23 00:11:00
6:52 PM,80.1,45.0,29,29.44,10.0,West,10.4,-,N/A,,Mostly Cloudy,280,2013-09-23 00:52:00
7:52 PM,73.9,46.9,38,29.44,10.0,NNW,13.8,-,N/A,,Mostly Cloudy,330,2013-09-23 01:52:00
8:52 PM,73.9,46.0,37,29.43,10.0,NW,11.5,-,N/A,,Clear,310,2013-09-23 02:52:00
9:52 PM,68.0,52.0,56,29.47,10.0,Calm,Calm,-,0.00,Rain,Light Rain,0,2013-09-23 03:52:00
10:52 PM,61.0,55.9,83,29.55,10.0,South,25.3,32.2,0.02,Rain,Light Rain,180,2013-09-23 04:52:00
11:52 PM,59.0,57.0,93,29.53,6.0,SW,10.4,-,0.14,Rain,Rain,220,2013-09-23 05:52:00